Location: ????????
(55.6189°N, 38.3031°E)
Time: 15:46:06
(UTC+00:00)

CZ-4B R/B - Pass Details

Date: 15 November 2019
Orbit: 486 x 653 km, 97.8° (Epoch: 09 December)

Event Time Altitude Azimuth Distance (km) Brightness Sun altitude
Rises 03:55:50 0° 3° (N) 2,586 6.1 -9.0°
Reaches altitude 10° 03:58:37 10° 340° (NNW) 1,689 4.9 -8.7°
Maximum altitude 04:00:40 15° 305° (NW) 1,413 4.3 -8.4°
Drops below altitude 10° 04:02:43 10° 270° (W) 1,682 4.7 -8.1°
Enters shadow 04:03:40 - 259° (W) 1,941 5.1 -8.0°
